Preview of NWS' New Version of Forecast
This preview is not operational and should not be used for support decisions.

Regional Weather Roundup (RWR)

Issued by National Weather Service (NWS)

                            
000
ASUS43 KLSX 210557
RWRMO 

WEATHER SUMMARY FOR MISSOURI
NATIONAL WEATHER SERVICE SPRINGFIELD MO
100 AM CDT SUN JUL 21 2019

NOTE: "FAIR" INDICATES FEW OR NO CLOUDS BELOW 12,000 FEET WITH NO
       SIGNIFICANT WEATHER AND/OR OBSTRUCTIONS TO VISIBILITY.
       CURRENT SKY AND/OR WEATHER CONDITIONS ARE NOT AVAILABLE FOR
       CHILLICOTHE AND FARMINGTON.

MOZ001>031-035>038-043-044-053-054-210700-
...NORTHERN AND WESTERN MISSOURI...
  
CITY           SKY/WX    TMP DP  RH WIND       PRES   REMARKS
KANSAS CTY INT CLOUDY    76  68  76 E21G35    29.95R                  
6HR MIN TEMP:  76; 6HR MAX TEMP:  93;                                

LEE'S SUMMIT   LGT RAIN  75  67  76 NE20G29   30.00R                  
6HR MIN TEMP:  75; 6HR MAX TEMP:  94; 6HR PCP: TRACE;                

ST JOSEPH      MOCLDY    75  71  87 E16G25    29.91R THUNDER          
6HR MIN TEMP:  75; 6HR MAX TEMP:  91; 6HR PCP: TRACE;                

CHILLICOTHE      N/A     71  71 100 VRB7      30.03R                  
6HR MIN TEMP:  71; 6HR MAX TEMP:  94; 6HR PCP:  1.23;                

KIRKSVILLE     CLEAR     72  70  94 S7        29.94R                  
     
$$
MOZ066>068-077>081-088>096-101>105-210700-
...SOUTHWEST MISSOURI...
  
CITY           SKY/WX    TMP DP  RH WIND       PRES   REMARKS
SPRINGFIELD    CLEAR     77  71  82 S6        29.98R                  
6HR MIN TEMP:  77; 6HR MAX TEMP:  91;                                

JOPLIN         CLEAR     80  72  76 S12       29.95R                  
6HR MIN TEMP:  80; 6HR MAX TEMP:  91;                                

               
$$
MOZ032>034-039>042-045>050-055>058-069>072-210700-
...CENTRAL MISSOURI...  
  
CITY           SKY/WX    TMP DP  RH WIND       PRES   REMARKS
COLUMBIA       NOT AVBL                                               
ROLLA          PTCLDY    79  72  79 SW7       29.98R                  
6HR MIN TEMP:  78; 6HR MAX TEMP:  89;                                

SEDALIA        LGT RAIN  68  68 100 E7        30.03S                  
6HR MIN TEMP:  68; 6HR MAX TEMP:  89; 6HR PCP:  0.22;                

WARRENSBURG    RAIN      72  66  83 NE8G20    30.02R                  
               
$$
MOZ051-052-059>065-210700-
...EAST CENTRAL MISSOURI...
  
CITY           SKY/WX    TMP DP  RH WIND       PRES   REMARKS
ST LOUIS INTL  MOCLDY    84  73  69 S8        29.93R HX  90           
6HR MIN TEMP:  84; 6HR MAX TEMP:  93;                                

                   
$$
MOZ072>076-082>087-097>100-106>115-210700-
...SOUTH CENTRAL AND SOUTHEAST MISSOURI...
  
CITY           SKY/WX    TMP DP  RH WIND       PRES   REMARKS
CAPE GIRARDEAU FAIR      79  75  87 SE5       29.94F                  
6HR MIN TEMP:  79; 6HR MAX TEMP:  89;                                

POPLAR BLUFF   FAIR      79  78  97 S5        29.94S                  
6HR MIN TEMP:  79; 6HR MAX TEMP:  89;                                

WEST PLAINS    CLEAR     79  73  82 SW3       30.00R                  
6HR MIN TEMP:  79; 6HR MAX TEMP:  89;                                

                                       
$$